World > North America > United States > Massachusetts

Hourly Hampton, MA Regional Weather

Feedback E-mail the Weather

Quick WX

Hampton, MA Weather Maps

°F °C°F °C
Hampton Weather Map
UTC Time: 6/27/2022, 21:32
Your Time:

Hampton, MA Regional Weather

Expires:202206272200;;294803
ASUS41 KOKX 272114
RWROKX

Regional Weather Roundup
National Weather Service New York NY
500 PM EDT MON JUN 27 2022

Note: "FAIR" indicates few or no clouds below 12,000 feet with no
significant weather and/or obstructions to visibility.


CTZ002-004>006-009-010-012-RIZ004-006-007-MAZ004-011-015-272200-
Southern New England

 In CT
  
CITY           SKY/WX    TMP DP  RH WIND       PRES   REMARKS
Bradley Intl   CLOUDY    75  64  68 SW3       29.91S                  
Hartford       CLOUDY    73  70  90 S5        29.91S                  
Danbury        CLOUDY    75  67  76 CALM      29.93F                  
Wtrbury/Oxford CLOUDY    69  66  90 CALM      29.95S                  
Norwalk Harbor NOT AVBL                                               
Bridgeport     LGT RAIN  72  71  97 S6        29.91S                  
Meriden        LGT RAIN  68  65  90 S3        29.92F                  
New Haven      LGT RAIN  71  68  90 E3        29.92S                  
Chester        HVY RAIN  70  70 100 NW8       29.94R                  
Groton         LGT RAIN  70  67  90 SW9       29.92R FOG              
Willimantic    RAIN      68  66  93 CALM      29.93R FOG              

 In RI
  
CITY           SKY/WX    TMP DP  RH WIND       PRES   REMARKS
Providence     RAIN      71  69  93 S7        29.92S FOG              
Block Island   LGT RAIN  67  65  93 SW15      29.95S                  
Westerly       LGT RAIN  69  67  93 SW14G20   29.93S                  
 
In MA
  
CITY           SKY/WX    TMP DP  RH WIND       PRES   REMARKS
Boston         CLOUDY    72  70  93 S12       29.89F FOG              
Worcester      LGT RAIN  71  69  93 SW7       29.93S                  
Westfield      CLOUDY    77  58  51 NW6       29.91R                  
Provincetown   CLOUDY    68  66  93 SW16      29.93F                  
Nantucket      CLOUDY    72  67  84 S17       29.97S                  
$$


SKY/WX - Weather  TMP - Temperature  DP - Dew Point  RH - Humidity
WIND - Wind Direction/Speed PRES - Barometric Pressure VSB - Visibility
WCI - Wind Chill Index E13G22 Wind - East Wind 13 mph/Gusts of 22 mph

Trending Headlines

Hampton Radar Loop



Hampton Quick Facts


National Two Day Weather Forecast


E-mail the Hampton Weather Forecast

Voice your opinion or tell us about page issues...